• In Hungary
  • List of Countries
  • For 7 days
  • Water Temperature
  • Satellite Maps
  • Weather Map
  • News
  • Weather Widgets
  • user-avatar
    Login

    Hourly Weather Rumburk

    Today, 20 June, Wednesday

    Time Temperature Precipitation Wind Pressure Humidity
    00:00 +15°C° 0 mm 1 mps 730 mmHg 93%
    01:00 +15°C° 0 mm 1 mps 730 mmHg 94%
    02:00 +15°C° 0 mm 1 mps 730 mmHg 94%
    03:00 +14°C° 0 mm 1 mps 730 mmHg 94%
    04:00 +14°C° 0 mm 1 mps 730 mmHg 95%
    05:00 +15°C° 0 mm 0 mps 730 mmHg 89%
    06:00 +17°C° 0 mm 0 mps 730 mmHg 84%
    07:00 +18°C° 0 mm 0 mps 730 mmHg 79%
    08:00 +20°C° 0 mm 0 mps 730 mmHg 72%
    09:00 +23°C° 0 mm 1 mps 730 mmHg 66%
    10:00 +25°C° 0 mm 1 mps 730 mmHg 59%
    11:00 +25°C° 0 mm 1 mps 730 mmHg 58%
    12:00 +26°C° 0 mm 1 mps 730 mmHg 56%
    13:00 +26°C° 0 mm 1 mps 730 mmHg 54%
    14:00 +26°C° 0 mm 1 mps 729 mmHg 54%
    15:00 +26°C° 0 mm 1 mps 729 mmHg 55%
    16:00 +26°C° 0 mm 1 mps 728 mmHg 55%
    17:00 +26°C° 0 mm 1 mps 728 mmHg 60%
    18:00 +25°C° 0 mm 1 mps 728 mmHg 64%
    19:00 +23°C° 0 mm 0 mps 727 mmHg 68%
    20:00 +23°C° 0 mm 1 mps 727 mmHg 72%
    21:00 +22°C° 0 mm 1 mps 727 mmHg 75%
    22:00 +20°C° 0 mm 1 mps 727 mmHg 79%
    23:00 +20°C° 0 mm 1 mps 727 mmHg 80%

    Tomorrow, 21 June, Thursday

    Time Temperature Precipitation Wind Pressure Humidity
    00:00 +19°C° 0 mm 1 mps 726 mmHg 81%
    01:00 +18°C° 0 mm 2 mps 726 mmHg 83%
    02:00 +18°C° 0 mm 2 mps 725 mmHg 84%
    03:00 +17°C° 0 mm 2 mps 725 mmHg 86%
    04:00 +17°C° 0 mm 2 mps 725 mmHg 87%
    05:00 +18°C° 0 mm 2 mps 725 mmHg 83%
    06:00 +20°C° 0 mm 2 mps 724 mmHg 79%
    07:00 +21°C° 0 mm 2 mps 724 mmHg 76%
    08:00 +24°C° 0.1 mm 3 mps 724 mmHg 69%
    09:00 +25°C° 0.1 mm 3 mps 723 mmHg 63%
    10:00 +27°C° 0.1 mm 4 mps 723 mmHg 56%
    11:00 +27°C° 0 mm 5 mps 722 mmHg 53%
    12:00 +28°C° 0 mm 5 mps 722 mmHg 51%
    13:00 +28°C° 0 mm 6 mps 721 mmHg 48%
    14:00 +27°C° 0.2 mm 7 mps 721 mmHg 53%
    15:00 +24°C° 0.2 mm 7 mps 721 mmHg 58%
    16:00 +23°C° 0.2 mm 8 mps 721 mmHg 64%
    17:00 +20°C° 0.1 mm 8 mps 721 mmHg 66%
    18:00 +16°C° 0.1 mm 8 mps 722 mmHg 69%
    19:00 +13°C° 0.1 mm 8 mps 722 mmHg 71%
    20:00 +12°C° 0 mm 7 mps 723 mmHg 68%
    21:00 +11°C° 0 mm 6 mps 724 mmHg 65%
    22:00 +9°C° 0 mm 5 mps 724 mmHg 62%
    23:00 +9°C° 0 mm 5 mps 725 mmHg 65%

    Day after tomorrow, 22 June, Friday

    Time Temperature Precipitation Wind Pressure Humidity
    00:00 +8°C° 0 mm 5 mps 725 mmHg 69%
    01:00 +7°C° 0 mm 4 mps 725 mmHg 72%
    02:00 +7°C° 0 mm 4 mps 725 mmHg 75%
    03:00 +6°C° 0 mm 4 mps 725 mmHg 77%
    04:00 +6°C° 0 mm 4 mps 725 mmHg 80%
    05:00 +6°C° 0 mm 5 mps 725 mmHg 77%
    06:00 +7°C° 0 mm 6 mps 725 mmHg 74%
    07:00 +8°C° 0 mm 7 mps 726 mmHg 71%
    08:00 +8°C° 0 mm 7 mps 726 mmHg 70%
    09:00 +9°C° 0 mm 7 mps 726 mmHg 68%
    10:00 +9°C° 0 mm 7 mps 726 mmHg 67%
    11:00 +11°C° 0.1 mm 7 mps 726 mmHg 64%
    12:00 +12°C° 0.1 mm 7 mps 726 mmHg 61%
    13:00 +14°C° 0.1 mm 7 mps 726 mmHg 58%
    14:00 +14°C° 0.2 mm 7 mps 726 mmHg 58%
    15:00 +15°C° 0.2 mm 6 mps 726 mmHg 57%
    16:00 +15°C° 0.2 mm 6 mps 725 mmHg 57%
    17:00 +15°C° 0.2 mm 6 mps 725 mmHg 62%
    18:00 +14°C° 0.2 mm 5 mps 725 mmHg 67%
    19:00 +13°C° 0.2 mm 4 mps 725 mmHg 72%
    20:00 +12°C° 0.1 mm 4 mps 726 mmHg 76%
    21:00 +11°C° 0.1 mm 4 mps 726 mmHg 81%
    22:00 +8°C° 0.1 mm 4 mps 726 mmHg 86%
    23:00 +8°C° 0.1 mm 4 mps 726 mmHg 88%

    23 June, Saturday

    Time Temperature Precipitation Wind Pressure Humidity
    00:00 +8°C° 0.1 mm 4 mps 726 mmHg 89%
    01:00 +7°C° 0.1 mm 4 mps 726 mmHg 91%
    02:00 +7°C° 0.1 mm 4 mps 726 mmHg 91%
    03:00 +7°C° 0.1 mm 4 mps 726 mmHg 90%
    04:00 +7°C° 0.1 mm 4 mps 727 mmHg 90%
    05:00 +8°C° 0.1 mm 5 mps 727 mmHg 87%
    06:00 +8°C° 0.1 mm 5 mps 727 mmHg 83%
    07:00 +9°C° 0.1 mm 6 mps 727 mmHg 80%
    08:00 +9°C° 0.1 mm 6 mps 727 mmHg 76%
    09:00 +10°C° 0.1 mm 6 mps 728 mmHg 72%
    10:00 +11°C° 0.1 mm 6 mps 728 mmHg 68%
    11:00 +11°C° 0 mm 6 mps 728 mmHg 65%
    12:00 +13°C° 0 mm 6 mps 728 mmHg 62%
    13:00 +14°C° 0 mm 6 mps 728 mmHg 59%
    14:00 +14°C° 0.1 mm 6 mps 728 mmHg 62%
    15:00 +14°C° 0.1 mm 6 mps 727 mmHg 64%
    16:00 +14°C° 0.1 mm 6 mps 727 mmHg 66%
    17:00 +13°C° 0.1 mm 5 mps 727 mmHg 70%
    18:00 +12°C° 0.1 mm 5 mps 727 mmHg 75%
    19:00 +12°C° 0.1 mm 4 mps 727 mmHg 79%
    20:00 +11°C° 0 mm 4 mps 727 mmHg 82%
    21:00 +11°C° 0 mm 3 mps 727 mmHg 85%
    22:00 +10°C° 0 mm 3 mps 728 mmHg 88%
    23:00 +10°C° 0.1 mm 3 mps 727 mmHg 89%

    24 June, Sunday

    Time Temperature Precipitation Wind Pressure Humidity
    00:00 +9°C° 0.1 mm 3 mps 727 mmHg 90%
    01:00 +9°C° 0.1 mm 3 mps 727 mmHg 92%
    02:00 +8°C° 0 mm 3 mps 727 mmHg 93%
    03:00 +8°C° 0 mm 3 mps 727 mmHg 93%
    04:00 +7°C° 0 mm 2 mps 727 mmHg 94%
    05:00 +8°C° 0 mm 3 mps 727 mmHg 91%
    06:00 +9°C° 0 mm 3 mps 728 mmHg 87%
    07:00 +10°C° 0 mm 3 mps 728 mmHg 83%
    08:00 +10°C° 0 mm 3 mps 728 mmHg 81%
    09:00 +11°C° 0 mm 4 mps 728 mmHg 79%
    10:00 +11°C° 0 mm 4 mps 728 mmHg 77%
    11:00 +12°C° 0.1 mm 4 mps 728 mmHg 72%
    12:00 +13°C° 0.1 mm 4 mps 728 mmHg 68%
    13:00 +14°C° 0.1 mm 4 mps 728 mmHg 64%
    14:00 +15°C° 0.1 mm 4 mps 728 mmHg 64%
    15:00 +16°C° 0.1 mm 3 mps 728 mmHg 64%
    16:00 +16°C° 0.1 mm 3 mps 728 mmHg 63%
    17:00 +14°C° 0.1 mm 3 mps 728 mmHg 68%
    18:00 +14°C° 0.1 mm 3 mps 728 mmHg 72%
    19:00 +14°C° 0.1 mm 2 mps 728 mmHg 76%
    20:00 +13°C° 0 mm 2 mps 728 mmHg 82%
    21:00 +12°C° 0 mm 2 mps 728 mmHg 88%
    22:00 +9°C° 0 mm 2 mps 728 mmHg 94%
    23:00 +9°C° 0 mm 2 mps 728 mmHg 94%

    25 June, Monday

    Time Temperature Precipitation Wind Pressure Humidity
    00:00 +9°C° 0 mm 2 mps 728 mmHg 95%
    01:00 +8°C° 0 mm 2 mps 728 mmHg 96%
    02:00 +8°C° 0 mm 2 mps 728 mmHg 96%
    03:00 +9°C° 0 mm 1 mps 728 mmHg 96%
    04:00 +9°C° 0 mm 1 mps 728 mmHg 96%
    05:00 +9°C° 0 mm 2 mps 728 mmHg 92%
    06:00 +12°C° 0 mm 2 mps 728 mmHg 87%
    07:00 +13°C° 0 mm 2 mps 729 mmHg 82%
    08:00 +15°C° 0.1 mm 2 mps 729 mmHg 77%
    09:00 +16°C° 0.1 mm 3 mps 729 mmHg 73%
    10:00 +17°C° 0.1 mm 3 mps 729 mmHg 68%
    11:00 +17°C° 0.1 mm 3 mps 729 mmHg 67%
    12:00 +18°C° 0.1 mm 4 mps 728 mmHg 65%
    13:00 +18°C° 0.1 mm 4 mps 728 mmHg 64%
    14:00 +18°C° 0.1 mm 4 mps 728 mmHg 65%
    15:00 +18°C° 0.1 mm 4 mps 728 mmHg 66%
    16:00 +18°C° 0.1 mm 4 mps 728 mmHg 67%
    17:00 +17°C° 0 mm 4 mps 728 mmHg 71%
    18:00 +16°C° 0 mm 3 mps 727 mmHg 74%
    19:00 +14°C° 0 mm 3 mps 727 mmHg 77%
    20:00 +14°C° 0 mm 2 mps 727 mmHg 79%
    21:00 +14°C° 0 mm 2 mps 727 mmHg 82%
    22:00 +13°C° 0 mm 2 mps 727 mmHg 84%
    23:00 +13°C° 0 mm 2 mps 727 mmHg 85%
    Show more